Hourly Weather Bocas del Toro

Today, 3 August, Monday

Time Temperature Precipitation Wind Pressure Humidity
00:00 +29°C° 0 mm 1 mps 759 mmHg 81%
01:00 +28°C° 0 mm 1 mps 759 mmHg 83%
02:00 +28°C° 0 mm 2 mps 758 mmHg 83%
03:00 +28°C° 0 mm 2 mps 758 mmHg 82%
04:00 +28°C° 0 mm 2 mps 758 mmHg 82%
05:00 +28°C° 0 mm 2 mps 758 mmHg 80%
06:00 +28°C° 0 mm 2 mps 758 mmHg 79%
07:00 +28°C° 0 mm 2 mps 758 mmHg 78%
08:00 +30°C° 0 mm 1 mps 758 mmHg 73%
09:00 +31°C° 0 mm 1 mps 759 mmHg 68%
10:00 +32°C° 0 mm 1 mps 759 mmHg 62%
11:00 +32°C° 0 mm 1 mps 759 mmHg 62%
12:00 +34°C° 0 mm 2 mps 759 mmHg 61%
13:00 +34°C° 0 mm 2 mps 758 mmHg 61%
14:00 +34°C° 0.1 mm 2 mps 758 mmHg 63%
15:00 +34°C° 0.1 mm 2 mps 758 mmHg 65%
16:00 +34°C° 0.1 mm 3 mps 757 mmHg 66%
17:00 +32°C° 0.7 mm 2 mps 757 mmHg 70%
18:00 +31°C° 0.7 mm 2 mps 757 mmHg 74%
19:00 +30°C° 0.7 mm 1 mps 757 mmHg 78%
20:00 +30°C° 0.6 mm 1 mps 758 mmHg 79%
21:00 +30°C° 0.6 mm 1 mps 759 mmHg 80%
22:00 +29°C° 0.6 mm 1 mps 759 mmHg 81%
23:00 +29°C° 0.4 mm 1 mps 759 mmHg 82%

Tomorrow, 4 August, Tuesday

Time Temperature Precipitation Wind Pressure Humidity
00:00 +29°C° 0.4 mm 1 mps 759 mmHg 82%
01:00 +29°C° 0.4 mm 2 mps 759 mmHg 83%
02:00 +29°C° 0.5 mm 2 mps 758 mmHg 83%
03:00 +29°C° 0.5 mm 2 mps 758 mmHg 83%
04:00 +28°C° 0.5 mm 2 mps 758 mmHg 83%
05:00 +28°C° 1 mm 2 mps 758 mmHg 83%
06:00 +28°C° 1 mm 3 mps 758 mmHg 82%
07:00 +28°C° 1 mm 3 mps 758 mmHg 82%
08:00 +29°C° 1.3 mm 2 mps 758 mmHg 83%
09:00 +29°C° 1.3 mm 2 mps 759 mmHg 83%
10:00 +29°C° 1.3 mm 2 mps 759 mmHg 84%
11:00 +30°C° 0.4 mm 2 mps 759 mmHg 79%
12:00 +31°C° 0.4 mm 1 mps 759 mmHg 75%
13:00 +32°C° 0.4 mm 1 mps 758 mmHg 70%
14:00 +32°C° 0.5 mm 1 mps 758 mmHg 70%
15:00 +32°C° 0.5 mm 1 mps 757 mmHg 70%
16:00 +32°C° 0.5 mm 1 mps 757 mmHg 70%
17:00 +31°C° 0.1 mm 1 mps 757 mmHg 73%
18:00 +30°C° 0.1 mm 1 mps 757 mmHg 75%
19:00 +28°C° 0.1 mm 0 mps 757 mmHg 77%
20:00 +28°C° 0.1 mm 0 mps 758 mmHg 79%
21:00 +29°C° 0.1 mm 1 mps 759 mmHg 80%
22:00 +29°C° 0.1 mm 1 mps 759 mmHg 81%
23:00 +29°C° 0 mm 1 mps 759 mmHg 82%

Day after tomorrow, 5 August, Wednesday

Time Temperature Precipitation Wind Pressure Humidity
00:00 +28°C° 0 mm 1 mps 759 mmHg 83%
01:00 +28°C° 0 mm 1 mps 758 mmHg 84%
02:00 +28°C° 0 mm 2 mps 758 mmHg 84%
03:00 +28°C° 0 mm 2 mps 757 mmHg 84%
04:00 +28°C° 0 mm 2 mps 757 mmHg 83%
05:00 +28°C° 0 mm 2 mps 757 mmHg 83%
06:00 +28°C° 0 mm 2 mps 757 mmHg 82%
07:00 +27°C° 0 mm 1 mps 758 mmHg 82%
08:00 +29°C° 0.3 mm 2 mps 758 mmHg 77%
09:00 +30°C° 0.3 mm 2 mps 758 mmHg 72%
10:00 +32°C° 0.3 mm 2 mps 759 mmHg 67%
11:00 +32°C° 0 mm 2 mps 758 mmHg 66%
12:00 +34°C° 0 mm 3 mps 758 mmHg 64%
13:00 +34°C° 0 mm 3 mps 758 mmHg 63%
14:00 +33°C° 0.2 mm 3 mps 757 mmHg 65%
15:00 +32°C° 0.2 mm 2 mps 757 mmHg 68%
16:00 +31°C° 0.2 mm 2 mps 756 mmHg 71%
17:00 +31°C° 0.8 mm 2 mps 757 mmHg 74%
18:00 +30°C° 0.8 mm 1 mps 757 mmHg 77%
19:00 +29°C° 0.8 mm 1 mps 757 mmHg 80%
20:00 +29°C° 1.4 mm 2 mps 758 mmHg 82%
21:00 +28°C° 1.4 mm 3 mps 759 mmHg 85%
22:00 +28°C° 1.4 mm 3 mps 759 mmHg 88%
23:00 +28°C° 0.3 mm 3 mps 759 mmHg 87%

6 August, Thursday

Time Temperature Precipitation Wind Pressure Humidity
00:00 +27°C° 0.3 mm 3 mps 758 mmHg 87%
01:00 +27°C° 0.3 mm 3 mps 758 mmHg 87%
02:00 +27°C° 0 mm 2 mps 757 mmHg 85%
03:00 +27°C° 0 mm 1 mps 757 mmHg 83%
04:00 +26°C° 0 mm 0 mps 756 mmHg 81%
05:00 +28°C° 0.2 mm 1 mps 756 mmHg 81%
06:00 +28°C° 0.2 mm 1 mps 757 mmHg 81%
07:00 +28°C° 0.2 mm 1 mps 757 mmHg 81%
08:00 +28°C° 0.5 mm 1 mps 758 mmHg 80%
09:00 +29°C° 0.5 mm 1 mps 758 mmHg 78%
10:00 +29°C° 0.5 mm 1 mps 758 mmHg 76%
11:00 +30°C° 0 mm 1 mps 758 mmHg 72%
12:00 +31°C° 0 mm 1 mps 758 mmHg 68%
13:00 +32°C° 0 mm 2 mps 758 mmHg 64%
14:00 +32°C° 0.1 mm 2 mps 757 mmHg 65%
15:00 +32°C° 0.1 mm 2 mps 757 mmHg 66%
16:00 +31°C° 0.1 mm 2 mps 756 mmHg 68%
17:00 +31°C° 0.2 mm 1 mps 756 mmHg 71%
18:00 +30°C° 0.2 mm 1 mps 757 mmHg 74%
19:00 +29°C° 0.2 mm 1 mps 757 mmHg 77%
20:00 +29°C° 0.1 mm 1 mps 757 mmHg 78%
21:00 +27°C° 0.1 mm 0 mps 758 mmHg 79%
22:00 +27°C° 0.1 mm 0 mps 759 mmHg 80%
23:00 +26°C° 0 mm 0 mps 758 mmHg 81%

7 August, Friday

Time Temperature Precipitation Wind Pressure Humidity
00:00 +26°C° 0 mm 0 mps 758 mmHg 81%
01:00 +26°C° 0 mm 0 mps 758 mmHg 82%
02:00 +28°C° 0 mm 1 mps 757 mmHg 83%
03:00 +28°C° 0 mm 1 mps 757 mmHg 83%
04:00 +27°C° 0 mm 2 mps 757 mmHg 84%
05:00 +27°C° 0.3 mm 2 mps 757 mmHg 83%
06:00 +27°C° 0.3 mm 2 mps 757 mmHg 82%
07:00 +27°C° 0.3 mm 3 mps 757 mmHg 82%
08:00 +29°C° 1 mm 3 mps 758 mmHg 77%
09:00 +30°C° 1 mm 3 mps 758 mmHg 73%
10:00 +31°C° 1 mm 3 mps 759 mmHg 69%
11:00 +31°C° 0.1 mm 3 mps 758 mmHg 68%
12:00 +33°C° 0.1 mm 3 mps 758 mmHg 67%
13:00 +33°C° 0.1 mm 3 mps 758 mmHg 67%
14:00 +33°C° 0.3 mm 3 mps 757 mmHg 70%
15:00 +31°C° 0.3 mm 3 mps 757 mmHg 72%
16:00 +32°C° 0.3 mm 4 mps 756 mmHg 75%
17:00 +30°C° 0.6 mm 3 mps 757 mmHg 78%
18:00 +30°C° 0.6 mm 2 mps 757 mmHg 81%
19:00 +29°C° 0.6 mm 2 mps 758 mmHg 85%
20:00 +29°C° 0.2 mm 1 mps 758 mmHg 85%
21:00 +29°C° 0.2 mm 1 mps 758 mmHg 85%
22:00 +29°C° 0.2 mm 1 mps 759 mmHg 85%
23:00 +28°C° 0.6 mm 1 mps 759 mmHg 86%

8 August, Saturday

Time Temperature Precipitation Wind Pressure Humidity
00:00 +28°C° 0.6 mm 1 mps 758 mmHg 86%
01:00 +28°C° 0.6 mm 1 mps 758 mmHg 86%
02:00 +28°C° 1.2 mm 2 mps 758 mmHg 86%
03:00 +28°C° 1.2 mm 2 mps 758 mmHg 86%
04:00 +28°C° 1.2 mm 3 mps 757 mmHg 86%
05:00 +28°C° 0.2 mm 3 mps 758 mmHg 85%
06:00 +28°C° 0.2 mm 2 mps 758 mmHg 85%
07:00 +28°C° 0.2 mm 2 mps 758 mmHg 84%
08:00 +29°C° 0.1 mm 2 mps 759 mmHg 80%
09:00 +30°C° 0.1 mm 2 mps 759 mmHg 76%
10:00 +31°C° 0.1 mm 1 mps 759 mmHg 72%
11:00 +31°C° 0.2 mm 2 mps 759 mmHg 70%
12:00 +32°C° 0.2 mm 2 mps 758 mmHg 69%
13:00 +33°C° 0.2 mm 3 mps 758 mmHg 67%
14:00 +33°C° 0.3 mm 3 mps 757 mmHg 70%
15:00 +33°C° 0.3 mm 3 mps 757 mmHg 73%
16:00 +31°C° 0.3 mm 3 mps 756 mmHg 76%
17:00 +30°C° 1.4 mm 3 mps 757 mmHg 79%
18:00 +30°C° 1.4 mm 3 mps 757 mmHg 83%
19:00 +29°C° 1.4 mm 3 mps 758 mmHg 86%
20:00 +29°C° 1.2 mm 2 mps 758 mmHg 87%
21:00 +29°C° 1.2 mm 2 mps 759 mmHg 87%
22:00 +28°C° 1.2 mm 2 mps 759 mmHg 88%
23:00 +28°C° 0.9 mm 2 mps 759 mmHg 87%
Show more